Location: Caumont
(43.0290°N, 1.0862°E)
Time: 05:52:16
(UTC+00:00)

Daily predictions for brighter satellites

Satellite Brightness Start Highest point End
(mag) Time Altitude Azimuth Time Altitude Azimuth Time Altitude Azimuth
CZ-3 R/B 4.4 01:29:53 10° WSW 02:27:44 50° SSE 02:37:39 10° ESE
CZ-3 Stage 3 4.4 03:27:42 44° S 03:28:07 44° S 03:51:22 10° ESE
Cosmos 1980 Rocket 4.3 03:44:55 18° SE 03:44:55 18° SE 03:46:20 10° SE
COSMOS 2455 3.4 04:07:00 55° ENE 04:07:00 55° ENE 04:12:22 10° SE
Cosmos 2333 Rocket 4.3 04:11:00 16° NNE 04:13:38 22° NE 04:18:01 10° E
Cosmos 1898 Rocket 3.8 04:29:28 65° E 04:29:28 65° E 04:34:26 10° SSE
Cosmos 2322 Rocket 4.1 04:32:25 13° N 04:36:09 24° NE 04:40:42 10° ESE
Cosmos 372 Rocket 4.3 04:50:47 50° SSW 04:50:47 50° SSW 04:54:39 10° S
Cosmos 1937 Rocket 3.5 04:49:25 53° N 04:50:33 74° ENE 04:55:40 10° SSE
Meteor 2-3 Rocket 4.0 04:46:36 10° S 04:52:17 67° E 04:57:55 10° NNE
NOSS 2-1 (D) 3.8 04:53:33 60° SSE 04:53:33 60° SSE 04:57:46 10° SSE
USA 59 Rocket 0.4 04:54:18 57° S 04:54:18 57° S 04:58:33 10° SSE
Cosmos 2237 4.1 04:53:25 52° NNW 04:54:55 89° WSW 05:00:37 10° SSE
Aureole 1 Rocket 4.3 04:53:28 46° NW 04:55:30 61° WSW 05:02:48 10° S
COSMOS 2406 3.0 04:55:16 34° SSW 04:57:52 81° WNW 05:03:34 10° NNE
SKYMED 2 3.9 04:54:21 10° SSE 04:58:38 65° ENE 05:00:15 36° N
Cosmos 2082 Rocket 3.0 05:05:01 34° NNW 05:05:01 34° NNW 05:08:49 10° NNE
NOSS 2-1 (E) 3.3 05:04:18 79° SSW 05:04:18 79° SSW 05:09:05 10° SSE
SL-16 R/B 2.6 05:01:03 24° NNW 05:04:30 62° ENE 05:10:06 10° SE
CZ-4 R/B 3.8 05:04:22 10° NNE 05:09:00 80° ESE 05:13:37 10° SSW
BREEZE-M DEB (TANK) 4.5 05:12:02 26° NNE 05:12:02 26° NNE 05:13:14 10° NE
Cosmos 1606 Rocket 3.8 05:14:42 48° SW 05:14:42 48° SW 05:18:18 10° S
Helios 1A Rocket 3.2 05:11:27 10° SSE 05:14:41 50° ENE 05:15:55 31° NNE
NOAA 12 4.0 05:14:07 10° NNE 05:19:25 81° WNW 05:24:39 10° SSW
NOSS 2-1 (C) 3.8 05:22:46 45° WSW 05:22:58 45° WSW 05:27:45 10° SSE
BREEZE-M DEB (TANK) 3.9 05:23:26 26° N 05:23:26 26° N 05:26:25 10° ENE
Cosmos 1980 Rocket 3.9 05:26:45 15° SW 05:26:45 15° SW 05:28:09 10° SW
BREEZE-M DEB (TANK) 2.3 05:24:36 52° NNW 05:25:05 60° NNE 05:30:43 10° E
Cosmos 2278 3.7 05:24:16 18° NNW 05:28:37 83° ENE 05:34:15 10° SSE
SL-4 R/B 3.0 05:28:33 24° N 05:28:50 24° NNE 05:31:30 10° ENE
Cosmos 2026 Rocket 3.8 05:26:09 10° SSW 05:32:11 73° W 05:38:18 10° N
Cosmos 2369 4.4 05:33:14 30° W 05:33:50 30° WSW 05:38:42 10° SSW
RUBIN 8/PSLV 4.5 05:29:42 10° NNE 05:34:03 87° ESE 05:38:18 10° SSW
CZ-3C R/B 4.5 05:30:33 10° S 05:34:58 16° SE 05:45:18 10° ESE
Cosmos 1726 Rocket 3.9 05:38:10 34° WNW 05:38:59 38° W 05:42:51 10° SSW
Cosmos 841 Rocket 4.3 05:40:31 28° WNW 05:41:13 29° WNW 05:45:48 10° N
Cosmos 405 Rocket 3.3 05:38:07 10° S 05:41:16 47° E 05:44:26 10° NNE
Tiangong 0.0 05:42:18 15° SW 05:42:37 16° SSW 05:44:39 10° S
NOSS 3-1 (C) 4.3 05:39:51 21° NW 05:45:03 54° WSW 05:53:50 10° SSE
Cosmos 158 Rocket 4.4 05:41:19 10° S 05:46:36 68° ESE 05:51:49 10° NNE
COSMOS 2455 3.9 05:50:11 22° W 05:51:58 25° WSW 05:56:45 10° SSW
Cosmos 1626 Rocket 3.6 05:50:03 10° S 05:54:27 82° E 05:58:53 10° N
Cosmos 2360 Rocket 2.2 05:51:33 10° NNW 05:57:13 82° ENE 06:02:50 10° SSE
Cosmos 2333 Rocket 2.2 05:53:03 12° NNW 05:58:27 67° WSW 06:04:07 10° SSE
Cosmos 1833 4.4 05:52:53 10° SSW 05:58:29 74° ESE 06:04:11 10° NNE
Cosmos 1092 Rocket 4.1 05:53:01 10° SSW 05:59:07 52° WNW 06:05:12 10° N
Cosmos 1892 Rocket 4.4 05:55:29 10° SW 05:59:15 28° WNW 06:03:05 10° NNW
Cosmos 1553 Rocket 4.1 05:53:02 10° N 05:59:27 87° E 06:05:52 10° S
SMAP 4.0 05:57:17 10° NNE 06:01:51 52° E 06:06:22 10° S
Cosmos-2242 3.2 06:00:58 10° NNW 06:05:00 45° W 06:09:00 10° SSW
Meteor 2-2 Rocket 4.4 05:59:31 10° NNW 06:05:05 55° W 06:10:43 10° S
CZ-3 R/B 4.5 05:57:18 10° W 06:05:21 15° SW 06:10:20 10° SSW
COSMO-SKYMED 1 3.1 06:01:54 10° SSW 06:05:37 33° W 06:08:59 12° NW
BREEZE-M DEB (TANK) 3.4 06:07:21 10° SW 06:09:47 46° SE 06:12:19 10° ENE
ATLAS 3B R/B 4.2 06:02:50 10° NNW 06:09:48 33° NE 06:16:30 10° E
IRS-1D 4.5 06:10:26 10° NNW 06:14:22 24° WNW 06:18:21 10° WSW
Cosmos 2219 Rocket 2.5 06:09:02 10° NNW 06:14:42 68° ENE 06:20:17 10° SSE
Cosmos 2322 Rocket 2.3 06:14:59 10° NNW 06:20:35 58° WSW 06:26:07 10° S
Okean 1-7 Rocket 4.3 06:19:50 10° S 06:24:15 60° E 06:28:41 10° NNE
Meteor 2-6 Rocket 4.4 06:21:19 10° NNW 06:27:14 66° W 06:33:04 10° S
Cosmos 1812 Rocket 3.6 06:24:38 10° N 06:28:58 86° ENE 06:33:19 10° S
IGS 5A 3.8 06:25:28 10° N 06:29:12 38° WNW 06:32:55 10° SW
Cosmos 1484 Rocket 3.4 06:27:30 10° NNW 06:30:21 25° WNW 06:33:11 10° SW
Cosmos 2266 Rocket 4.2 06:24:07 10° S 06:30:30 86° E 06:36:52 10° N
Cosmos 1602 Rocket 3.5 06:28:32 10° SSW 06:32:57 74° W 06:37:25 10° N
ATLAS 2AS CENTAUR R/B 2.8 06:26:47 10° SSW 06:33:53 88° SE 06:40:49 10° NE
SJ-12 3.9 06:30:14 10° NNE 06:34:04 80° ESE 06:37:52 10° S
Cosmos 1437 Rocket 2.7 06:31:36 10° N 06:35:04 73° E 06:38:31 10° SSE
Cosmos 192 4.4 06:30:20 10° NNW 06:35:17 86° ENE 06:40:10 10° SSE
Cosmos 2058 Rocket 4.4 06:33:25 10° NW 06:36:39 20° W 06:39:52 10° SW
Cosmos 1417 Rocket 4.5 06:31:10 10° N 06:37:19 86° W 06:43:29 10° S
Cosmos 2333 4.4 06:32:54 10° NNW 06:38:32 59° WSW 06:44:05 10° S
Cosmos 1743 2.7 06:35:31 10° SSW 06:38:34 39° WNW 06:41:40 10° N
ARIANE 5 R/B 2.7 06:37:38 10° NNE 06:42:53 89° ESE 06:48:06 10° SSW
